Imperial, NE

7:54 PM MST on February 22, 2018 (GMT -0700)
Imperial Municipal

Weather History for KIML - January, 2012

Change the Weather History Date:

Wednesday, January 11, 2012

  Actual Average Record
Temperature  
Mean Temperature 28 °F 28 °F  
Max Temperature 41 °F 41 °F 64 °F (2006)
Min Temperature 14 °F 15 °F -27 °F (1918)
Degree Days  
Heating Degree Days 37 37  
Month to date heating degree days 313 407  
Cooling Degree Days 0 0  
Month to date cooling degree days 0 0  
Year to date cooling degree days 0 0  
Moisture  
Dew Point 15 °F    
Average Humidity 51    
Maximum Humidity 70    
Minimum Humidity 31    
Precipitation  
Precipitation 0.00 in 0.01 in 0.30 in (1905)
Sea Level Pressure  
Sea Level Pressure 30.05 in    
Wind  
Wind Speed 25 mph (NNW)    
Max Wind Speed 43 mph    
Max Gust Speed 53 mph    
Visibility 10 miles    
Events      
T = Trace of Precipitation, MM = Missing Value Source: NWS Daily Summary

Daily Weather History Graph

Daily Weather History Graph

Search for Another Location

Airport or City:

Trip Planner

Search our weather history database for the weather conditions in past years. The results will help you decide how hot, cold, wet, or windy it might be!

Date:

Astronomy

Jan. 11, 2012 Rise Set
Actual Time 7:09 AM MST 4:39 PM MST
Civil Twilight 6:39 AM MST 5:09 PM MST
Nautical Twilight 6:05 AM MST 5:43 PM MST
Astronomical Twilight 5:32 AM MST 6:16 PM MST
Moon 7:41 PM MST (1/11) 8:21 AM MST (1/11)
Length of Visible Light 10h 30m
Length of Day
9h 30m
Waning Gibbous, 93% of the Moon is Illuminated
Jan 11
Waning Gibbous
Jan 16
Last Quarter
Jan 23
New
Jan 30
First Quarter
Feb 7
Full

Hourly Weather History & Observations

Time (MST) Temp. Windchill Dew Point Humidity Pressure Visibility Wind Dir Wind Speed Gust Speed Precip Events Conditions
12:53 AM 39.9 °F 31.1 °F 21.0 °F 47% 29.77 in 10.0 mi NNW 17.3 mph - N/A   Clear
1:53 AM 37.0 °F 28.5 °F 24.1 °F 59% 29.81 in 10.0 mi NNW 13.8 mph - N/A   Clear
2:53 AM 39.0 °F 29.0 °F 30.0 °F 70% 29.82 in 10.0 mi North 20.7 mph 25.3 mph N/A   Scattered Clouds
3:17 AM 39.2 °F 26.8 °F 30.2 °F 70% 29.81 in 10.0 mi North 33.4 mph 41.4 mph N/A   Mostly Cloudy
3:24 AM 39.2 °F 27.6 °F 30.2 °F 70% 29.82 in 10.0 mi North 28.8 mph 40.3 mph N/A   Scattered Clouds
3:31 AM 39.2 °F 27.0 °F 30.2 °F 70% 29.82 in 10.0 mi North 32.2 mph 39.1 mph N/A   Mostly Cloudy
3:53 AM 37.9 °F 26.1 °F 28.9 °F 70% 29.84 in 10.0 mi North 27.6 mph 41.4 mph N/A   Mostly Cloudy
4:19 AM 35.6 °F 22.3 °F 26.6 °F 70% 29.84 in 10.0 mi North 31.1 mph 36.8 mph N/A   Partly Cloudy
4:53 AM 34.0 °F 21.0 °F 25.0 °F 70% 29.91 in 10.0 mi North 26.5 mph 40.3 mph N/A   Mostly Cloudy
5:21 AM 33.8 °F 20.3 °F 24.8 °F 70% 29.90 in 10.0 mi North 28.8 mph 41.4 mph N/A   Overcast
5:53 AM 32.0 °F 17.4 °F 23.0 °F 69% 29.97 in 10.0 mi North 31.1 mph 42.6 mph N/A   Overcast
6:46 AM 30.2 °F 15.4 °F 19.4 °F 64% 29.96 in 10.0 mi North 28.8 mph 42.6 mph N/A   Mostly Cloudy
6:53 AM 30.0 °F 15.2 °F 19.9 °F 66% 30.03 in 10.0 mi North 28.8 mph 39.1 mph N/A   Mostly Cloudy
7:07 AM 30.2 °F 13.5 °F 19.4 °F 64% 29.98 in 10.0 mi North 39.1 mph 46.0 mph N/A   Overcast
7:53 AM 30.0 °F 14.5 °F 19.0 °F 64% 30.06 in 10.0 mi North 32.2 mph 42.6 mph N/A   Scattered Clouds
8:53 AM 30.0 °F 15.4 °F 19.0 °F 64% 30.11 in 10.0 mi North 27.6 mph 40.3 mph N/A   Overcast
9:01 AM 30.2 °F 15.2 °F 19.4 °F 64% 30.04 in 10.0 mi North 29.9 mph 39.1 mph N/A   Overcast
9:15 AM 30.2 °F 16.2 °F 19.4 °F 64% 30.04 in 10.0 mi North 25.3 mph 41.4 mph N/A   Overcast
9:36 AM 30.2 °F 16.2 °F 19.4 °F 64% 30.05 in 10.0 mi North 25.3 mph 38.0 mph N/A   Overcast
9:53 AM 30.9 °F 16.2 °F 19.9 °F 64% 30.12 in 10.0 mi North 29.9 mph 39.1 mph N/A   Overcast
10:53 AM 30.9 °F 16.9 °F 17.1 °F 57% 30.14 in 10.0 mi North 26.5 mph 38.0 mph N/A   Scattered Clouds
11:53 AM 30.0 °F 14.2 °F 12.9 °F 49% 30.14 in 10.0 mi North 33.4 mph 41.4 mph N/A   Scattered Clouds
12:53 PM 30.0 °F 15.4 °F 10.0 °F 43% 30.14 in 10.0 mi North 27.6 mph 40.3 mph N/A   Mostly Cloudy
1:53 PM 28.9 °F 14.3 °F 12.0 °F 49% 30.17 in 10.0 mi NNW 26.5 mph 33.4 mph N/A   Mostly Cloudy
2:53 PM 27.0 °F 10.5 °F 1.0 °F 33% 30.18 in 10.0 mi NNW 31.1 mph 39.1 mph N/A   Clear
3:53 PM 24.1 °F 6.6 °F -0.9 °F 34% 30.21 in 10.0 mi NNW 31.1 mph 41.4 mph N/A   Mostly Cloudy
4:53 PM 21.9 °F 6.2 °F -5.1 °F 30% 30.23 in 10.0 mi NW 21.9 mph 34.5 mph N/A   Mostly Cloudy
5:53 PM 18.0 °F -0.8 °F -5.1 °F 36% 30.25 in 10.0 mi NNW 27.6 mph 38.0 mph N/A   Clear
6:53 PM 16.0 °F -1.3 °F -4.0 °F 41% 30.27 in 10.0 mi NW 20.7 mph 29.9 mph N/A   Clear
7:53 PM 15.1 °F -0.6 °F -2.9 °F 45% 30.27 in 10.0 mi NW 16.1 mph 24.2 mph N/A   Partly Cloudy
8:53 PM 14.0 °F -1.4 °F -2.0 °F 49% 30.27 in 10.0 mi NW 15.0 mph - N/A   Clear
9:53 PM 14.0 °F -3.4 °F -2.9 °F 47% 30.25 in 10.0 mi NW 19.6 mph 26.5 mph N/A   Clear
10:53 PM 15.1 °F -1.1 °F -2.9 °F 45% 30.23 in 10.0 mi NW 17.3 mph 32.2 mph N/A   Clear
11:53 PM 14.0 °F -3.9 °F -2.9 °F 47% 30.22 in 10.0 mi NW 20.7 mph 28.8 mph N/A   Clear